Previsão horária em Allah-Yun

Hoje, 15 Junho, Terça-feira

Tempo Temperatura Precipitação Vento Pressão Humidade
00:00 +8°C° 0 mm 0 m/s 704 mmHg 79%
01:00 +7°C° 0 mm 0 m/s 704 mmHg 81%
02:00 +8°C° 0 mm 1 m/s 703 mmHg 82%
03:00 +8°C° 0 mm 1 m/s 703 mmHg 83%
04:00 +10°C° 0 mm 1 m/s 703 mmHg 77%
05:00 +11°C° 0 mm 1 m/s 703 mmHg 71%
06:00 +12°C° 0 mm 0 m/s 703 mmHg 66%
07:00 +13°C° 0 mm 0 m/s 703 mmHg 60%
08:00 +15°C° 0 mm 1 m/s 703 mmHg 54%
09:00 +16°C° 0 mm 1 m/s 702 mmHg 48%
10:00 +18°C° 0 mm 1 m/s 702 mmHg 45%
11:00 +19°C° 0 mm 1 m/s 702 mmHg 41%
12:00 +20°C° 0 mm 1 m/s 702 mmHg 37%
13:00 +20°C° 0 mm 1 m/s 702 mmHg 40%
14:00 +19°C° 0 mm 2 m/s 702 mmHg 42%
15:00 +19°C° 0 mm 2 m/s 702 mmHg 44%
16:00 +18°C° 0 mm 2 m/s 702 mmHg 46%
17:00 +19°C° 0 mm 1 m/s 702 mmHg 48%
18:00 +19°C° 0 mm 1 m/s 702 mmHg 50%
19:00 +16°C° 0 mm 1 m/s 702 mmHg 57%
20:00 +15°C° 0 mm 1 m/s 702 mmHg 64%
21:00 +13°C° 0 mm 1 m/s 702 mmHg 71%
22:00 +12°C° 0 mm 0 m/s 702 mmHg 73%
23:00 +11°C° 0 mm 0 m/s 702 mmHg 75%

Amanhã, 16 Junho, Quarta-feira

Tempo Temperatura Precipitação Vento Pressão Humidade
00:00 +11°C° 0 mm 0 m/s 701 mmHg 77%
01:00 +11°C° 0 mm 0 m/s 701 mmHg 77%
02:00 +12°C° 0 mm 1 m/s 701 mmHg 76%
03:00 +12°C° 0 mm 1 m/s 701 mmHg 76%
04:00 +13°C° 0 mm 1 m/s 701 mmHg 71%
05:00 +14°C° 0 mm 1 m/s 701 mmHg 66%
06:00 +16°C° 0 mm 1 m/s 701 mmHg 61%
07:00 +16°C° 0 mm 1 m/s 700 mmHg 57%
08:00 +18°C° 0 mm 1 m/s 700 mmHg 53%
09:00 +19°C° 0 mm 1 m/s 700 mmHg 50%
10:00 +18°C° 0 mm 2 m/s 700 mmHg 48%
11:00 +19°C° 0 mm 2 m/s 700 mmHg 45%
12:00 +19°C° 0 mm 3 m/s 700 mmHg 43%
13:00 +19°C° 0 mm 3 m/s 700 mmHg 45%
14:00 +19°C° 0 mm 3 m/s 700 mmHg 47%
15:00 +19°C° 0 mm 4 m/s 699 mmHg 50%
16:00 +19°C° 0 mm 3 m/s 699 mmHg 51%
17:00 +19°C° 0 mm 3 m/s 699 mmHg 52%
18:00 +18°C° 0 mm 3 m/s 699 mmHg 53%
19:00 +17°C° 0 mm 2 m/s 700 mmHg 60%
20:00 +15°C° 0 mm 2 m/s 700 mmHg 66%
21:00 +14°C° 0 mm 1 m/s 700 mmHg 72%
22:00 +13°C° 0 mm 1 m/s 700 mmHg 74%
23:00 +12°C° 0 mm 1 m/s 700 mmHg 77%

Depois de amanhã, 17 Junho, Quinta-feira

Tempo Temperatura Precipitação Vento Pressão Humidade
00:00 +12°C° 0 mm 1 m/s 700 mmHg 80%
01:00 +10°C° 0 mm 0 m/s 700 mmHg 80%
02:00 +10°C° 0 mm 0 m/s 701 mmHg 81%
03:00 +10°C° 0 mm 0 m/s 701 mmHg 82%
04:00 +12°C° 0 mm 0 m/s 701 mmHg 75%
05:00 +13°C° 0 mm 0 m/s 702 mmHg 67%
06:00 +15°C° 0 mm 0 m/s 702 mmHg 60%
07:00 +17°C° 0 mm 0 m/s 703 mmHg 55%
08:00 +18°C° 0 mm 0 m/s 703 mmHg 49%
09:00 +22°C° 0 mm 1 m/s 703 mmHg 44%
10:00 +23°C° 0 mm 1 m/s 704 mmHg 39%
11:00 +24°C° 0 mm 1 m/s 704 mmHg 35%
12:00 +25°C° 0 mm 1 m/s 704 mmHg 30%
13:00 +26°C° 0 mm 1 m/s 704 mmHg 29%
14:00 +26°C° 0 mm 1 m/s 704 mmHg 28%
15:00 +27°C° 0 mm 1 m/s 704 mmHg 27%
16:00 +26°C° 0 mm 1 m/s 705 mmHg 29%
17:00 +26°C° 0 mm 1 m/s 705 mmHg 31%
18:00 +26°C° 0 mm 1 m/s 705 mmHg 32%
19:00 +24°C° 0 mm 2 m/s 706 mmHg 43%
20:00 +20°C° 0 mm 2 m/s 706 mmHg 54%
21:00 +18°C° 0 mm 2 m/s 706 mmHg 65%
22:00 +17°C° 0 mm 2 m/s 707 mmHg 67%
23:00 +16°C° 0 mm 2 m/s 707 mmHg 69%

18 Junho, Sexta-feira

Tempo Temperatura Precipitação Vento Pressão Humidade
00:00 +15°C° 0 mm 2 m/s 708 mmHg 71%
01:00 +15°C° 0 mm 1 m/s 708 mmHg 72%
02:00 +15°C° 0 mm 1 m/s 708 mmHg 72%
03:00 +15°C° 0 mm 1 m/s 709 mmHg 72%
04:00 +16°C° 0 mm 1 m/s 709 mmHg 66%
05:00 +19°C° 0 mm 1 m/s 709 mmHg 60%
06:00 +20°C° 0 mm 1 m/s 709 mmHg 54%
07:00 +20°C° 0 mm 2 m/s 709 mmHg 50%
08:00 +21°C° 0 mm 3 m/s 709 mmHg 45%
09:00 +23°C° 0 mm 4 m/s 709 mmHg 40%
10:00 +23°C° 0 mm 4 m/s 709 mmHg 40%
11:00 +23°C° 0 mm 4 m/s 710 mmHg 39%
12:00 +23°C° 0 mm 4 m/s 710 mmHg 39%
13:00 +21°C° 0.1 mm 3 m/s 710 mmHg 48%
14:00 +20°C° 0.1 mm 2 m/s 710 mmHg 58%
15:00 +19°C° 0.1 mm 1 m/s 710 mmHg 67%
16:00 +19°C° 0 mm 1 m/s 710 mmHg 64%
17:00 +20°C° 0 mm 1 m/s 710 mmHg 61%
18:00 +20°C° 0 mm 1 m/s 710 mmHg 58%
19:00 +19°C° 0 mm 1 m/s 710 mmHg 63%
20:00 +16°C° 0 mm 0 m/s 710 mmHg 68%
21:00 +15°C° 0 mm 0 m/s 710 mmHg 73%
22:00 +14°C° 0 mm 0 m/s 710 mmHg 75%
23:00 +13°C° 0 mm 0 m/s 710 mmHg 77%

19 Junho, Sábado

Tempo Temperatura Precipitação Vento Pressão Humidade
00:00 +14°C° 0 mm 1 m/s 710 mmHg 80%
01:00 +14°C° 0 mm 1 m/s 710 mmHg 80%
02:00 +13°C° 0 mm 1 m/s 711 mmHg 80%
03:00 +13°C° 0 mm 1 m/s 711 mmHg 80%
04:00 +15°C° 0 mm 1 m/s 711 mmHg 73%
05:00 +16°C° 0 mm 0 m/s 711 mmHg 67%
06:00 +17°C° 0 mm 0 m/s 711 mmHg 60%
07:00 +19°C° 0 mm 0 m/s 711 mmHg 55%
08:00 +20°C° 0 mm 0 m/s 711 mmHg 50%
09:00 +21°C° 0 mm 0 m/s 711 mmHg 45%
10:00 +24°C° 0 mm 1 m/s 711 mmHg 43%
11:00 +25°C° 0 mm 1 m/s 711 mmHg 41%
12:00 +26°C° 0 mm 1 m/s 711 mmHg 39%
13:00 +27°C° 0 mm 1 m/s 710 mmHg 39%
14:00 +27°C° 0 mm 2 m/s 710 mmHg 39%
15:00 +27°C° 0 mm 2 m/s 710 mmHg 38%
16:00 +27°C° 0 mm 2 m/s 710 mmHg 40%
17:00 +26°C° 0 mm 2 m/s 710 mmHg 42%
18:00 +26°C° 0 mm 2 m/s 710 mmHg 43%
19:00 +24°C° 0 mm 2 m/s 709 mmHg 50%
20:00 +22°C° 0 mm 1 m/s 709 mmHg 57%
21:00 +20°C° 0 mm 1 m/s 709 mmHg 64%
22:00 +19°C° 0 mm 1 m/s 709 mmHg 68%
23:00 +19°C° 0 mm 1 m/s 709 mmHg 72%

20 Junho, Domingo

Tempo Temperatura Precipitação Vento Pressão Humidade
00:00 +16°C° 0 mm 0 m/s 709 mmHg 75%
01:00 +15°C° 0 mm 0 m/s 709 mmHg 77%
02:00 +15°C° 0 mm 0 m/s 708 mmHg 78%
03:00 +15°C° 0 mm 0 m/s 708 mmHg 80%
04:00 +17°C° 0 mm 0 m/s 708 mmHg 74%
05:00 +18°C° 0 mm 0 m/s 709 mmHg 69%
06:00 +22°C° 0 mm 1 m/s 709 mmHg 63%
07:00 +23°C° 0 mm 1 m/s 708 mmHg 59%
08:00 +24°C° 0 mm 2 m/s 708 mmHg 55%
09:00 +25°C° 0 mm 2 m/s 708 mmHg 51%
10:00 +25°C° 0.1 mm 3 m/s 708 mmHg 51%
11:00 +25°C° 0.1 mm 4 m/s 707 mmHg 50%
12:00 +26°C° 0.1 mm 6 m/s 707 mmHg 49%
13:00 +26°C° 0 mm 6 m/s 707 mmHg 45%
14:00 +27°C° 0 mm 7 m/s 707 mmHg 41%
15:00 +27°C° 0 mm 7 m/s 706 mmHg 37%
16:00 +27°C° 0 mm 7 m/s 706 mmHg 38%
17:00 +26°C° 0 mm 7 m/s 706 mmHg 39%
18:00 +26°C° 0 mm 6 m/s 706 mmHg 41%
19:00 +23°C° 0 mm 5 m/s 705 mmHg 47%
20:00 +22°C° 0 mm 3 m/s 705 mmHg 53%
21:00 +20°C° 0 mm 2 m/s 705 mmHg 60%
22:00 +20°C° 0.1 mm 2 m/s 705 mmHg 65%
23:00 +20°C° 0.1 mm 1 m/s 705 mmHg 70%
Mostrar mais